Regional Weather Roundup
Issued by NWS Charleston, SC

Current Version | Previous Version | Text Only | Print | Product List | Glossary Off
Versions: 1 2 3 4 5 6 7 8 9 10 11 12 13 14 15 16 17 18 19 20 21 22 23 24 25 26 27 28 29 30 31 32 33 34 35 36 37 38 39 40 41 42 43 44 45 46 47 48 49 50

975
ASUS42 KCHS 250328
RWRCHS

REGIONAL WEATHER ROUNDUP
NATIONAL WEATHER SERVICE CHARLESTON SC
1100 PM EDT SUN JUL 24 2016

NOTE: "FAIR" INDICATES FEW OR NO CLOUDS BELOW 12,000 FEET WITH NO
SIGNIFICANT WEATHER AND/OR OBSTRUCTIONS TO VISIBILITY.

NOT ALL STATIONS ARE QUALITY CONTROLLED. USE DATA WITH CAUTION...
ESPECIALLY DEWPOINT OBSERVATIONS.

SCZ027-030-031-034>040-042>050-250400-
...SOUTHEAST SOUTH CAROLINA...

CITY           SKY/WX    TMP DP  RH WIND       PRES   REMARKS
N CHARLESTON   PTCLDY    80  75  84 S5        30.05R
WATERFRONT PRK   N/A     84  78  82 S6        30.03R HX  95
MOUNT PLEASANT FAIR      81  77  89 CALM      30.06R
JOHNS ISLAND   FAIR      82  77  83 S7        30.06S HX  91
PINOPOLIS        N/A     81  77  89 VRB2      29.98R
MONCKS CORNER  FAIR      75  73  94 CALM      30.06R
SUMMERVILLE    NOT AVBL
BEAUFORT MCAS  CLEAR     84  75  74 S5        30.05R HX  92
BEAUFORT ARPT  FAIR      82  73  74 S8        30.05S
HILTON HEAD IS CLEAR     84  75  74 S9        30.07R HX  92
WALTERBORO     CLEAR     81  75  83 S3        30.07R
ALLENDALE      FAIR      82  77  83 CALM      30.05R HX  91

...SOUTHERN MIDLANDS AND PEE DEE...

CITY           SKY/WX    TMP DP  RH WIND       PRES   REMARKS
GEORGETOWN     FAIR      77  73  88 CALM      30.07R
KINGSTREE      FAIR      79  73  83 SE3       30.05S
ORANGEBURG     CLEAR     82  76  81 S5        30.05R
BARNWELL       NOT AVBL
AIKEN          FAIR      79  73  83 S5        30.09F
MANNING        FAIR      81  73  78 S5        30.05S
COLUMBIA       CLEAR     86  75  69 CALM      30.04R HX  95
SUMTER         CLEAR     82  75  79 S8        30.03R
FLORENCE       CLEAR     82  77  84 S5        30.05R HX  90
MYRTLE BEACH   CLEAR     82  72  69 SW6       30.07R
N MYRTLE BEACH CLEAR     84  77  79 SW12      30.05R HX  94

$$

GAZ063-065-086>088-099>101-113>116-118-119-134>141-150-250400-
...SOUTHEAST GEORGIA...

CITY           SKY/WX    TMP DP  RH WIND       PRES   REMARKS
SAVANNAH ARPT  CLEAR     80  74  81 S6        30.06R
HUNTER AAF     CLEAR     82  77  84 S5        30.03R HX  91
FORT STEWART   CLEAR     78  74  88 CALM      30.03R
STATESBORO     CLEAR     78  75  91 CALM      30.06R
SYLVANIA       NOT AVBL
CLAXTON        FAIR      76  75  96 CALM      30.07R

...CSRA...CENTRAL AND FAR SOUTHEAST GEORGIA...

CITY           SKY/WX    TMP DP  RH WIND       PRES   REMARKS
THOMSON        NOT AVBL
AUGUSTA-BUSH   CLEAR     83  72  69 S3        30.04R
AUGUSTA-DANIEL CLEAR     86  72  62 SE5       30.06R HX  92
SWAINSBORO     FAIR      75  73  94 SE3       30.07R
VIDALIA        CLEAR     79  70  73 S3        30.07R
EASTMAN        FAIR      82  64  54 S3        30.08R
HAZLEHURST     FAIR      82  73  72 CALM      30.06R
ALMA           PTCLDY    77  72  84 S3        30.05R
WAYCROSS       CLEAR     82  76  83 S3        30.06R
JESUP          FAIR      79  77  94 CALM      30.06R
BAXLEY         FAIR      79  77  94 CALM      30.06R
BRUNSWICK      CLEAR     84  75  74 S8        30.07R HX  92
SAINT SIMONS   CLEAR     85  72  65 S9        30.05R HX  91

$$

SCZ027-028-034-036>038-045-046-048>050-GAZ119-141-250400-
...LAKE AND SUPPLEMENTAL COASTAL OBSERVATIONS...

STATION/POSITION TIME  TEMP    WIND        PRES    WAVE   SWELL
                       AIR SEA DIR/SP/G            HT/PER HT/PER/DIR
                 (UTC) (F)     (DEG/KT/KT) (MB)    (FT/S) (FT/S/D)
WINYAH BAY       0200   83     220/  4     1017.0
LAKE MURRAY      0200   88     170/  8/ 12 1015.9R
ACE BASIN NERRS  0200   84        CALM     1017.0S
FORT PULASKI     0300      88              1018.1
SAPELO ISLAND    0300   84     180/ 10     1018.0R

$$

ANZ835-935-AMZ111-154-330-350-352-354-370-450-454-472-250400-
...C-MAN AND BUOY OBSERVATIONS...

STATION/POSITION TIME  TEMP    WIND        PRES    WAVE   SWELL
                       AIR SEA DIR/SP/G            HT/PER HT/PER/DIR
                 (UTC) (F)     (DEG/KT/KT) (MB)    (FT/S) (FT/S/D)
BUOY 41004       0250   85 86  190/ 12/ 14 1017.3R   2/ 8   2/130/ 8
BUOY 41008       0250   85 86  160/ 14/ 16 1017.4R   3/ 9   2/ 90/ 9
FOLLY BEACH CMAN 0300   84     200/ 12/ 14 1017.8R
CAPERS NEARSHORE 0308   84 83  210/ 12/ 16 1017.6R
FRIPP NEARSHORE  0308   85 86  190/ 14/ 17 1017.1R


STATION/POSITION TIME  TEMP    WIND        PRES    WAVE   SWELL
                       AIR SEA DIR/SP/G            HT/PER HT/PER/DIR
                 (UTC) (F)     (DEG/KT/KT) (MB)    (FT/S) (FT/S/D)
5E ST. MARYS GA  0301      86                N/A     3/ 8
FRYING PAN BUOY  0300   85 86  200/ 10/ 14 1017.9R
BUOY 41025       0250   85 85  220/ 14/ 16 1017.8R   2/ 8   2/120/ 8
CAPE LOOKOUT NC  0300   83     210/  9/ 10 1017.6R
BUOY 41002       0250   84 85  170/  2/  4 1019.5R   2/ 9   2/100/ 9
BUOY 41010       0220   85 86  150/  6/  8 1018.6R
ST AUGUSTINE FL  0300   84 87  160/ 16/ 18 1018.9R


$$




USA.gov is the U.S. government's official web portal to all federal, state and local government web resources and services.